Weather History for Key West NAF, FL

Change the Weather History Date:

Friday, February 1, 2013

  Actual Average Record
Temperature  
Mean Temperature 67 °F -  
Max Temperature 72 °F 75 °F 82 °F (1982)
Min Temperature 62 °F 65 °F 54 °F (1980)
Cooling Degree Days 2    
Growing Degree Days 17 (Base 50)    
Moisture  
Dew Point 53 °F    
Average Humidity 61    
Maximum Humidity 73    
Minimum Humidity 53    
Precipitation  
Precipitation 0.00 in - - ()
Sea Level Pressure  
Sea Level Pressure 30.20 in    
Wind  
Wind Speed 14 mph (NNE)    
Max Wind Speed 20 mph    
Max Gust Speed 26 mph    
Visibility 10 miles    
Events      
Averages and records for this station are not official NWS values.
T = Trace of Precipitation, MM = Missing Value Source: NWS Daily Summary

Daily Weather History Graph

Daily Weather History Graph

Search for Another Location

Airport:

Trip Planner

Search our weather history database for the weather conditions in past years. The results will help you decide how hot, cold, wet, or windy it might be!

Date:

Astronomy

Feb. 01, 2013 Rise Set
Actual Time 7:08 AM EST 6:12 PM EST
Civil Twilight 6:44 AM EST 6:36 PM EST
Nautical Twilight 6:17 AM EST 7:03 PM EST
Astronomical Twilight 5:50 AM EST 7:30 PM EST
Moon 11:32 PM EST (2/1) 10:23 AM EST (2/1)
Length of Visible Light 11h 51m
Length of Day
11h 03m
Waning Gibbous, 70% of the Moon is Illuminated
Feb 1
Waning Gibbous
Feb 3
Last Quarter
Feb 10
New
Feb 17
First Quarter
Feb 25
Full

Hourly Weather History & Observations

Time (EST) Temp. Dew Point Humidity Pressure Visibility Wind Dir Wind Speed Gust Speed Precip Events Conditions
12:53 AM 66.0 °F 54.0 °F 65% 30.17 in 10.0 mi North 15.0 mph 20.7 mph N/A   Clear
1:22 AM 66.2 °F 51.8 °F 60% 30.17 in 10.0 mi North 11.5 mph - N/A   Mostly Cloudy
1:53 AM 66.0 °F 52.0 °F 60% 30.17 in 10.0 mi North 13.8 mph 21.9 mph N/A   Overcast
2:53 AM 64.0 °F 50.0 °F 60% 30.17 in 10.0 mi NNE 13.8 mph 18.4 mph N/A   Overcast
3:53 AM 64.0 °F 50.0 °F 60% 30.15 in 10.0 mi NNE 13.8 mph - N/A   Mostly Cloudy
4:04 AM 62.6 °F 50.0 °F 63% 30.16 in 10.0 mi North 17.3 mph 21.9 mph N/A   Scattered Clouds
4:53 AM 63.0 °F 51.1 °F 65% 30.15 in 10.0 mi NNE 12.7 mph 23.0 mph N/A   Clear
5:53 AM 62.1 °F 48.9 °F 62% 30.17 in 10.0 mi NNE 13.8 mph 23.0 mph N/A   Clear
5:55 AM 62.6 °F 50.0 °F 63% 30.18 in 10.0 mi North 13.8 mph 20.7 mph N/A   Partly Cloudy
6:53 AM 62.1 °F 48.9 °F 62% 30.20 in 10.0 mi North 18.4 mph 26.5 mph N/A   Mostly Cloudy
7:53 AM 63.0 °F 51.1 °F 65% 30.21 in 10.0 mi NNE 15.0 mph 21.9 mph N/A   Scattered Clouds
8:53 AM 64.0 °F 53.1 °F 67% 30.24 in 10.0 mi North 16.1 mph 25.3 mph N/A   Mostly Cloudy
9:53 AM 66.0 °F 52.0 °F 60% 30.25 in 10.0 mi North 19.6 mph 25.3 mph N/A   Scattered Clouds
10:53 AM 66.0 °F 52.0 °F 60% 30.25 in 10.0 mi NNE 17.3 mph 24.2 mph N/A   Mostly Cloudy
11:53 AM 68.0 °F 53.1 °F 59% 30.25 in 10.0 mi NNE 16.1 mph 24.2 mph N/A   Scattered Clouds
12:53 PM 68.0 °F 54.0 °F 61% 30.23 in 10.0 mi NNE 15.0 mph 20.7 mph N/A   Mostly Cloudy
1:53 PM 71.1 °F 55.0 °F 57% 30.21 in 10.0 mi NNE 12.7 mph 20.7 mph N/A   Scattered Clouds
2:53 PM 71.1 °F 55.0 °F 57% 30.19 in 10.0 mi NNE 11.5 mph 20.7 mph N/A   Scattered Clouds
3:53 PM 72.0 °F 55.9 °F 57% 30.19 in 10.0 mi North 11.5 mph - N/A   Scattered Clouds
4:53 PM 71.1 °F 55.0 °F 57% 30.18 in 10.0 mi NNE 15.0 mph 21.9 mph N/A   Partly Cloudy
5:53 PM 70.0 °F 53.1 °F 55% 30.19 in 10.0 mi NNE 10.4 mph - N/A   Partly Cloudy
6:53 PM 70.0 °F 52.0 °F 53% 30.20 in 10.0 mi NE 10.4 mph - N/A   Scattered Clouds
7:53 PM 70.0 °F 53.1 °F 55% 30.21 in 10.0 mi NE 12.7 mph - N/A   Scattered Clouds
8:53 PM 69.1 °F 55.0 °F 61% 30.22 in 10.0 mi NE 13.8 mph 21.9 mph N/A   Scattered Clouds
9:53 PM 66.9 °F 57.0 °F 70% 30.22 in 10.0 mi NE 9.2 mph 17.3 mph N/A   Scattered Clouds
10:53 PM 66.9 °F 57.0 °F 70% 30.22 in 10.0 mi NE 8.1 mph - N/A   Clear
11:53 PM 66.0 °F 57.0 °F 73% 30.21 in 10.0 mi NE 10.4 mph 18.4 mph N/A   Scattered Clouds